Terminal Aerodrome Forecast
Issued by NWS

Home | Current Version | Previous Version | Text Only | Print | Product List | Glossary On
Versions: 1 2 3 4 5 6 7 8 9 10 11 12 13 14 15 16 17 18 19 20 21 22 23 24 25 26 27
000
FTUS43 KDLH 281700 CCA
TAFBRD
TAF
KBRD 281741Z 2818/2918 16009G16KT 3SM BR OVC006
      TEMPO 2822/2901 3SM -FZDZSN BR
     FM290200 VRB03KT 3SM -FZDZSN OVC004
     FM290700 32018G26KT 5SM -SN BR SCT007 BKN015 OVC022=

USA.gov is the U.S. government's official web portal to all federal, state and local government web resources and services.